DMSP 5D-2 F13 DEB, 40676

Orbit data source: Space-Track

DMSP 5D-2 F13 DEB, 40676 is space debris in SSO originally from a launch on Fri, 24 Mar 1995 UTC launched from the Air Force Western Test Range (AFWTR). Debris objects in space refer to the collection of defunct objects orbiting the Earth. Examples of debris include non-operational satellites, rocket bodies, and fragments generated from explosions, collisions, or faulty payload assembly.

Loading next visibility...
DMSP 5D-2 F13 DEB details
Identifier
40676, 1995-015FQ
Orbit
SSO
Last TLE update1 day ago
Origin
Flag of USUSAF SMC (US)
ManufacturerUnknown
MissionSpacecraft
Bus & MotorUnknown
MassUnknown
Launch date (UTC)
1995-03-24 (30 years ago)
Launch vehicleUnknown
Launch site
Air Force Western Test Range (AFWTR)
Object type
Payload
Rocket body
Debris
Shape & HBRUnknown
Radar Cross SectionSmall (<0.1 m²)

Expand to show TLE details & history

TLE from 1 day ago
0 DMSP 5D-2 F13 DEB
1 40676U 95015FQ  24347.32774356  .00007841  00000-0  28533-2 0  9993
2 40676  98.7195   9.8191 0005280 208.1212 151.9687 14.33434341497101
Epoch: 2024-12-12T07:51Z
Definitive object data (Epoch: 2024-12-12T07:51:57.043Z)
Latitude-0.00007°
Longitude170.32177°
Altitude786.544 km
Speed7.459 km/s
True Right ascension00h 39m 16s
True Declination0° 00' 00"
Sunlit
Object was in daylight at TLE epoch
Visualization TLE readout
Latitude30.02888°
Longitude-3.60608°
Altitude781.849 km
Speed7.467 km/s
Apparent Right ascension15h 23m 47s
Apparent Declination-3° 26' 02"
Sunlit
Object is in daylight
Visualization observer readout
Local Sidereal Time06:30:27
Azimuth61.538° ENE
Elevation-34.32°
Doppler factor1
Orbital elements
Apogee altitude781.193 km
Perigee altitude773.637 km
Semi-major axis7,155.552 km
Eccentricity0.000528
Inclination98.7195°
RAAN9.8191°
Arg. of periapsis208.1212°
True anomaly151.99712°
Mean anomaly151.9687°
Eccentric anomaly151.98291°
Mean motion3.58574 °/min
BSTAR0.0028533
Orbital period100.4 mins
Loading maneuver chart data...

DMSP 5D-2 F13 DEB Visibility forecast

Observer location: undefined°, undefined

Span
Click to sort rows by Start time (UTC) header in descending order
Start Az.
Max El. time (UTC)
Max El. Az.
Max El.
End time (UTC)
End Az.
9 mins2024-12-13 14:35:55.596Z15.196° NNE2024-12-13 14:39:55.596Z43.822° NE44.524°2024-12-13 14:44:55.596Z192.694° SSW
4 mins2024-12-14 00:15:55.596Z78.71° E2024-12-14 00:16:55.596Z65.97° ENE14.191°2024-12-14 00:19:55.596Z29.556° NE
9 mins2024-12-14 01:51:55.596Z175.183° S2024-12-14 01:55:55.596Z255.342° W43.358°2024-12-14 02:00:55.596Z341.672° N
|